Flight Track Log - Related Links

Times and Time Zones

All times are in EDT time to prevent confusion due to time zone crossing. See the N248CG flight status page for this flight to view local times or setup timezone preferences in your user account.

Time Position Orientation Groundspeed Altitude Reporting Facility
EDT Latitude Longitude Course Direction KTS MPH feet Rate Location/Type
Mon 05:05:07 PM 34.3833 -87.6642 109° East 160 184 3,600  Level Memphis Center
Mon 05:06:07 PM 34.3719 -87.6219 108° East 143 165 4,500 900 Climbing Memphis Center
Mon 05:07:07 PM 34.3606 -87.5794 108° East 132 152 5,400 900 Climbing Memphis Center
Mon 05:08:07 PM 34.3492 -87.5369 108° East 132 152 6,300 850 Climbing Memphis Center
Mon 05:09:07 PM 34.3378 -87.4947 108° East 132 152 7,100 800 Climbing Memphis Center
Mon 05:10:07 PM 34.3286 -87.4522 105° East 132 152 7,900 700 Climbing Memphis Center
Mon 05:11:07 PM 34.3233 -87.4097 99° East 132 152 8,500 550 Climbing Memphis Center
Mon 05:12:07 PM 34.3181 -87.3644 98° East 132 152 9,000 250 Climbing Memphis Center
Mon 05:13:07 PM 34.3003 -87.3125 112° Southeast 149 171 9,000  Level Memphis Center
Mon 05:14:07 PM 34.2842 -87.2578 110° East 163 188 9,000  Level Memphis Center
Mon 05:15:07 PM 34.2661 -87.1981 110° East 174 200 9,000  Level Memphis Center
Mon 05:16:07 PM 34.2500 -87.1408 109° East 174 200 9,000  Level Memphis Center
Mon 05:17:08 PM 34.2339 -87.0836 109° East 174 200 9,000  Level Memphis Center
Mon 05:18:07 PM 34.2178 -87.0264 109° East 174 200 9,000  Level Memphis Center
Mon 05:19:07 PM 34.1994 -86.9694 111° Southeast 174 200 9,000 -50 Level Memphis Center
Mon 05:20:07 PM 34.1811 -86.9125 111° Southeast 174 200 8,900 -350 Descending Memphis Center
Mon 05:21:07 PM 34.1628 -86.8528 110° East 174 200 8,300 -450 Descending Memphis Center
Mon 05:22:07 PM 34.1422 -86.7886 111° Southeast 186 214 8,000 -402 Descending Memphis Center
Mon 05:23:51 PM 34.1081 -86.6831 111° Southeast 195 224 7,200 -509 Descending Atlanta Center
Mon 05:24:52 PM 34.0928 -86.6200 106° East 191 220 6,600 -639 Descending Atlanta Center
Mon 05:25:53 PM 34.0794 -86.5569 104° East 190 219 5,900 -694 Descending Atlanta Center
Mon 05:26:53 PM 34.0642 -86.4936 106° East 187 215 5,200 -522 Descending Atlanta Center
Mon 05:27:48 PM 34.0547 -86.4408 102° East 186 214 4,900 -220 Descending Atlanta Center
Mon 05:28:42 PM 34.0431 -86.3903 106° East 176 203 4,800 -275 Descending Atlanta Center
Mon 05:29:37 PM 34.0297 -86.3347 106° East 177 204 4,400 -417 Descending Atlanta Center
Mon 05:30:37 PM 34.0161 -86.2792 106° East 178 205 4,000 -248 Descending Atlanta Center
Mon 05:31:38 PM 34.0044 -86.2239 104° East 171 197 3,900 -295 Descending Atlanta Center
Mon 05:32:39 PM 33.9931 -86.1683 104° East 166 191 3,400 -595 Descending Atlanta Center
Mon 05:33:39 PM 33.9750 -86.1153 112° Southeast 174 200 2,700 -331 Descending Atlanta Center
Mon 05:34:46 PM 33.9731 -86.1053 103° East 174 200 2,700  Level Atlanta Center

Login

Don't have an account? Register now (free) for customized features, flight alerts, and more!